This demonstration page uses our WeatherBlox Daily Observations layout. Learn more.

Left ArrowRight Arrow

38.83388, -104.82136

Hourly Observations for January 24, 2022

Temp ( °F °C ) Dew Point ( °F °C ) Humidity (%) Winds ( mph kmh ) Pressure ( in mb ) Visibility ( mi km ) Precip ( " mm )
12:58 am 00:58 Clear 36 2.1 15 -9.2 43 43 W 3 6 29.60 1002 10 16 0.00 0.00
1:58 am 01:58 Clear 41 4.8 12 -10.9 31 31 W 7 11 29.57 1002 10 16 0.00 0.00
2:58 am 02:58 Clear 41 4.8 12 -11.3 30 30 W 10 17 29.58 1002 10 16 0.00 0.00
3:58 am 03:58 Clear 42 5.3 11 -11.8 28 28 W 12 19 29.56 1001 10 16 0.00 0.00
4:58 am 04:58 Clear 40 4.6 10 -12.4 28 28 W 9 15 29.59 1002 10 16 0.00 0.00
5:58 am 05:58 Clear 36 2 13 -10.8 38 38 WSW 7 11 29.64 1004 10 16 0.00 0.00
6:58 am 06:58 Clear 36 2 12 -11.2 37 37 WSW 6 9 29.66 1004 10 16 0.00 0.00
7:58 am 07:58 Sunny 37 3 12 -11.3 34 34 Calm 29.68 1005 10 16 0.00 0.00
8:58 am 08:58 Sunny 39 3.8 11 -11.8 31 31 Calm 29.67 1005 10 16 0.00 0.00
9:58 am 09:58 Sunny 37 2.9 12 -11.1 35 35 WNW 9 15 29.69 1006 10 16 0.00 0.00
10:58 am 10:58 Sunny 38 3.3 11 -11.8 32 32 NNW 9 15 29.68 1005 10 16 0.00 0.00
11:58 am 11:58 Mostly Sunny 41 5 11 -11.6 29 29 E 3 6 29.64 1004 10 16 0.00 0.00
12:58 pm 12:58 Mostly Cloudy 43 6.1 12 -11.1 28 28 ENE 14 22 29.60 1002 10 16 0.00 0.00
1:58 pm 13:58 Partly Cloudy 42 5.4 11 -11.7 28 28 E 14 22 29.56 1001 10 16 0.00 0.00
2:58 pm 14:58 Mostly Sunny 41 5 12 -11.2 30 30 ENE 12 19 29.55 1001 10 16 0.00 0.00
3:58 pm 15:58 Sunny 38 3.5 12 -11.3 33 33 E 15 24 29.55 1001 10 16 0.00 0.00
4:58 pm 16:58 Sunny 36 2.4 13 -10.8 37 37 ESE 13 20 29.59 1002 10 16 0.00 0.00
5:58 pm 17:58 Cloudy 36 2.3 12 -10.9 37 37 SE 15 24 29.63 1003 10 16 0.00 0.00
6:58 pm 18:58 Cloudy 36 2.2 13 -10.7 38 38 SE 12 19 29.64 1004 10 16 0.00 0.00
7:58 pm 19:58 Cloudy 34 0.9 13 -10.6 42 42 E 13 20 29.64 1004 10 16 0.00 0.00
8:58 pm 20:58 Cloudy 34 1 11 -11.7 38 38 SE 15 24 29.65 1004 10 16 0.00 0.00
9:58 pm 21:58 Mostly Cloudy 33 0.4 12 -11.3 41 41 SE 10 17 29.66 1004 10 16 0.00 0.00
10:58 pm 22:58 Cloudy 30 -1.2 11 -11.6 45 45 E 7 11 29.68 1005 10 16 0.00 0.00
11:58 pm 23:58 Mostly Cloudy 30 -1.2 13 -10.8 48 48 SE 5 7 29.65 1004 10 16 0.00 0.00

Powered by AerisWeather